Total_Precipitation_Accumulation
0.76 0.78 0.88 0.95 0.96 1.04 1.12 1.12 1.10 1.16 1.22 1.17 1.12 1.07 1.05 1.10 1.22 1.30 1.29 1.31 1.35 1.33 1.33 1.35 1.32 1.28 1.32 1.31 1.32 1.33 1.36 1.56 1.55 0.81 0.57 0.61 0.74 0.80 0.82 0.80 0.81 0.87 0.90
0.80 0.81 0.83 0.94 0.99 1.02 1.09 1.17 1.17 1.18 1.22 1.22 1.21 1.16 1.04 1.01 1.10 1.20 1.25 1.27 1.31 1.29 1.28 1.33 1.33 1.33 1.37 1.37 1.42 1.41 1.39 1.44 1.56 1.20 0.77 0.72 0.79 0.83 0.87 0.89 0.84 0.85 0.87
0.74 0.83 0.84 0.88 0.97 1.07 1.14 1.18 1.19 1.16 1.21 1.23 1.24 1.24 1.17 1.11 1.14 1.18 1.20 1.23 1.23 1.21 1.20 1.25 1.30 1.37 1.42 1.40 1.41 1.42 1.38 1.33 1.40 1.41 1.05 0.84 0.87 0.91 0.97 1.00 0.99 0.99 0.96
0.77 0.77 0.89 0.96 0.96 1.03 1.12 1.17 1.24 1.25 1.24 1.26 1.26 1.27 1.27 1.28 1.38 1.39 1.30 1.28 1.20 1.17 1.15 1.20 1.26 1.38 1.47 1.55 1.63 1.55 1.47 1.53 1.54 1.57 1.33 1.06 0.98 0.97 1.14 1.20 1.19 1.12 1.08
0.96 0.93 0.90 0.96 0.98 0.97 1.03 1.07 1.14 1.23 1.24 1.21 1.18 1.18 1.23 1.34 1.64 1.68 1.50 1.37 1.28 1.22 1.16 1.14 1.17 1.37 1.62 1.86 2.00 1.92 1.87 1.95 1.90 1.89 1.67 1.37 1.19 1.18 1.26 1.24 1.31 1.21 1.18
1.09 1.10 0.98 0.94 0.95 0.97 1.00 1.02 1.05 1.11 1.14 1.13 1.11 1.10 1.17 1.33 1.78 1.86 1.67 1.41 1.33 1.30 1.26 1.19 1.18 1.28 1.39 1.60 1.84 1.92 2.00 2.13 2.20 2.16 1.99 1.72 1.35 1.21 1.26 1.44 1.60 1.63 1.49
1.11 1.17 1.13 1.00 0.94 0.95 0.95 0.95 0.96 0.98 1.03 1.03 1.03 1.05 1.05 1.23 1.71 1.74 1.57 1.29 1.20 1.20 1.18 1.13 1.14 1.14 1.22 1.13 1.28 1.41 1.49 1.69 1.95 2.12 2.18 1.77 1.46 1.33 1.56 1.81 1.84 1.84 1.58
1.15 1.13 1.10 1.00 0.90 0.91 0.95 0.92 0.86 0.86 0.92 0.95 0.97 0.99 0.96 1.03 1.46 1.69 1.54 1.14 1.08 1.13 1.13 1.12 1.12 1.09 1.10 1.22 1.27 1.28 1.18 1.20 1.45 1.70 1.84 1.68 1.57 1.60 1.85 2.17 2.33 2.39 2.01
1.06 1.05 1.02 0.97 0.92 0.95 0.98 0.94 0.86 0.85 0.88 0.87 0.87 0.92 0.92 0.95 1.25 1.65 1.70 1.24 1.19 1.15 1.14 1.26 1.32 1.22 1.30 1.52 1.59 1.52 1.28 1.11 1.20 1.55 1.83 1.88 1.95 2.16 2.40 2.78 3.09 3.20 2.85
0.90 0.93 0.98 0.94 0.92 0.96 0.99 0.96 0.92 0.90 0.93 0.94 0.93 0.95 0.95 0.92 1.14 1.57 1.86 1.44 1.35 1.23 1.20 1.31 1.63 1.59 1.61 1.67 1.66 1.69 1.63 1.29 1.16 1.23 1.34 1.45 1.48 1.58 1.99 2.31 2.62 2.98 2.94
0.78 0.81 0.91 0.93 0.91 0.93 0.96 0.99 0.99 0.99 1.01 1.04 1.01 0.99 0.98 0.94 1.02 1.32 1.80 1.68 1.48 1.40 1.37 1.40 1.51 1.65 1.65 1.68 1.74 1.70 1.76 1.67 1.58 1.54 1.46 1.38 1.40 1.51 1.67 1.91 2.17 2.54 2.83
0.75 0.77 0.82 0.90 0.90 0.91 0.94 0.93 0.93 1.00 1.08 1.09 1.08 1.05 1.01 1.00 1.02 1.17 1.53 1.76 1.69 1.47 1.41 1.30 1.38 1.59 1.64 1.67 1.64 1.68 1.81 1.83 1.70 1.65 1.56 1.46 1.40 1.43 1.47 1.61 1.86 2.05 2.23
0.73 0.77 0.82 0.89 0.89 0.87 0.88 0.90 0.87 0.89 0.99 1.06 1.07 1.09 1.06 1.03 1.07 1.23 1.31 1.42 1.54 1.43 1.40 1.59 1.58 1.58 1.52 1.46 1.50 1.58 1.56 1.51 1.57 1.56 1.42 1.26 1.16 1.19 1.30 1.47 1.67 1.86 2.01
0.77 0.82 0.86 0.91 0.94 0.89 0.84 0.84 0.85 0.91 1.07 1.16 1.14 1.11 1.05 1.02 1.10 1.30 1.34 1.31 1.38 1.40 1.40 1.51 1.51 1.39 1.29 1.28 1.35 1.37 1.33 1.40 1.53 1.54 1.39 1.25 1.17 1.22 1.32 1.42 1.60 1.76 2.04
0.76 0.83 0.89 0.93 0.94 0.92 0.86 0.86 0.90 0.95 1.18 1.45 1.40 1.35 1.35 1.34 1.41 1.72 1.71 1.59 1.59 1.62 1.63 1.59 1.46 1.31 1.23 1.16 1.13 1.11 1.15 1.30 1.44 1.40 1.41 1.41 1.36 1.36 1.37 1.38 1.55 1.72 1.93
0.76 0.79 0.86 0.94 0.96 0.92 0.87 0.89 0.93 0.95 1.06 1.10 1.13 1.26 1.27 1.44 1.61 1.60 1.54 1.52 1.58 1.62 1.65 1.54 1.32 1.19 1.14 1.09 1.08 1.09 1.08 1.14 1.19 1.28 1.38 1.41 1.43 1.44 1.44 1.43 1.56 1.73 1.79
0.78 0.81 0.84 0.88 0.91 0.91 0.88 0.85 0.89 0.90 0.92 0.95 0.97 1.04 1.18 1.36 1.40 1.38 1.43 1.38 1.38 1.40 1.38 1.25 1.14 1.12 1.10 1.08 1.09 1.10 1.09 1.03 1.09 1.23 1.34 1.40 1.45 1.49 1.49 1.49 1.53 1.62 1.66
0.76 0.82 0.85 0.87 0.90 0.89 0.89 0.87 0.85 0.85 0.88 0.92 0.92 0.94 1.04 1.16 1.23 1.27 1.33 1.29 1.27 1.19 1.15 1.17 1.14 1.10 1.08 1.10 1.11 1.12 1.10 1.08 1.12 1.19 1.25 1.29 1.35 1.46 1.48 1.41 1.40 1.53 1.62
0.67 0.74 0.80 0.84 0.86 0.86 0.87 0.86 0.84 0.83 0.83 0.86 0.88 0.93 0.99 1.03 1.10 1.18 1.18 1.12 1.13 1.10 1.07 1.09 1.09 1.12 1.13 1.10 1.08 1.09 1.13 1.15 1.13 1.15 1.17 1.18 1.22 1.36 1.39 1.29 1.32 1.44 1.64
0.62 0.73 0.79 0.80 0.81 0.83 0.86 0.86 0.87 0.88 0.88 0.86 0.90 0.97 1.05 1.09 1.11 1.12 1.08 1.07 1.09 1.07 1.04 1.08 1.05 1.07 1.12 1.14 1.13 1.13 1.16 1.15 1.13 1.13 1.13 1.13 1.17 1.29 1.34 1.28 1.34 1.45 1.53
0.60 0.66 0.73 0.75 0.77 0.81 0.86 0.91 0.92 0.95 0.95 0.92 0.90 0.95 1.25 1.38 1.22 1.06 1.05 1.08 1.14 1.18 1.15 1.12 1.05 1.01 1.03 1.08 1.14 1.14 1.15 1.10 1.07 1.13 1.16 1.16 1.19 1.27 1.26 1.31 1.36 1.40 1.48
0.63 0.67 0.70 0.73 0.76 0.82 0.89 0.91 0.91 0.94 0.92 0.90 0.88 0.90 1.00 1.00 0.99 0.98 0.99 1.05 1.12 1.18 1.21 1.23 1.13 1.01 1.01 1.13 1.21 1.24 1.18 1.08 1.04 1.14 1.21 1.19 1.21 1.25 1.28 1.32 1.33 1.40 1.47
0.68 0.71 0.71 0.71 0.74 0.83 0.86 0.82 0.86 0.89 0.90 0.87 0.86 0.87 0.89 0.92 0.94 0.99 1.04 1.06 1.12 1.16 1.15 1.16 1.15 1.01 0.94 1.02 1.12 1.26 1.31 1.19 1.15 1.29 1.44 1.38 1.30 1.28 1.31 1.34 1.32 1.38 1.42
0.73 0.75 0.76 0.75 0.76 0.78 0.80 0.80 0.83 0.86 0.88 0.89 0.87 0.88 0.91 0.92 0.94 0.99 1.04 1.07 1.12 1.13 1.12 1.12 1.08 1.01 0.96 1.00 1.04 1.07 1.14 1.26 1.49 1.64 1.61 1.60 1.47 1.32 1.32 1.35 1.31 1.30 1.36
0.74 0.75 0.77 0.80 0.81 0.83 0.84 0.81 0.81 0.84 0.87 0.89 0.89 0.89 0.90 0.91 0.93 0.97 1.01 1.05 1.10 1.12 1.07 1.05 1.05 1.01 0.96 0.94 0.95 0.99 1.13 1.34 1.59 1.93 2.14 2.06 1.74 1.45 1.40 1.39 1.33 1.31 1.35
0.73 0.73 0.75 0.78 0.83 0.87 0.91 0.90 0.87 0.88 0.93 0.92 0.91 0.93 0.95 0.96 0.97 0.99 1.02 1.09 1.16 1.14 1.08 1.04 0.99 0.95 0.94 0.94 0.94 1.01 1.18 1.40 1.63 1.92 2.38 2.55 2.12 1.65 1.48 1.49 1.39 1.37 1.40